Location: Sungai Laei
(2.6000°N, 113.7167°E)
Time: 12:36:28
(UTC+00:00)

CZ-2C R/B - Pass Details

Date: 05 October 2022
Orbit: 703 x 908 km, 98.1° (Epoch: 08 December)

Event Time Altitude Azimuth Distance (km) Brightness Sun altitude
Rises 21:14:23 0° 352° (N) 3,361 6.2 -14.9°
Reaches altitude 10° 21:17:05 10° 341° (NNW) 2,395 5.3 -14.3°
Maximum altitude 21:21:32 28° 284° (WNW) 1,439 3.8 -13.1°
Drops below altitude 10° 21:25:48 10° 225° (SW) 2,289 5.1 -12.1°
Sets 21:28:20 0° 214° (SSW) 3,185 5.9 -11.5°
